2019-032B (44311 NORAD) Tracking and Keplerian Element Data

This shows tracking and keplerian element data for the satellite.

Feedback or suggestion? Click here.




ElementValue
Catalog44311
Name2019-032B
Epoch Orbit449
Epoch Day186.11166154
Epoch Year2019
RAAN143.7357
Inclination44.9771
Eccentricity0.0012561
Argument of Perigee110.1242
Mean Anonmoly250.0983
Mean Motion15.00347937
Decay Rate-1.02E-06
L11 44311U 19032B 19186.11166154 -.00000102 00000-0 10064-4 0 9997
L22 44311 44.9771 143.7357 0012561 110.1242 250.0983 15.00347937 4496

Live tracking and technical data element details for 2019-032B (NORAD 44311). 2019-032B can be tracked NOW for your location showing map with azimuth and elevation plus other details from your city location.

Track the satellite on the map from your city or location and see movement details for azimuth, elevation, latitude, longitude, range, height, and movement on the map or in text.







IsCatalogInMostPopularTable: catalog: 44311, numindb: 12
Update: records affected: 1



GetName: 44311 2019-032B

Hit Count: updated at: Fri, 19 Jul 2019 22:39:29 GMT